Location: Lombard
(41.8800°N, 88.0080°W)
Time: 23:45:37
(UTC-05:00)

Tiros 1 - Pass Details

Date: 31 January 2023
Orbit: 628 x 662 km, 48.4° (Epoch: 20 March)

Event Time Altitude Azimuth Distance (km) Brightness Sun altitude
Rises 08:20:24 0° 289° (WNW) 2,956 9.9 11.3°
Reaches altitude 10° 08:23:12 10° 273° (W) 2,049 9.3 11.7°
Maximum altitude 08:26:43 21° 225° (SW) 1,456 9.0 12.2°
Drops below altitude 10° 08:30:15 10° 177° (S) 2,056 10.5 12.8°
Sets 08:33:04 0° 161° (SSE) 2,968 11.6 13.2°
